User: anonymous   Login
Location: Skalnate Pleso
(49.1889°N, 20.2450°E)
Time: 22:42:54
(UTC+02:00)
Language:

Iridium 18 - Orbit

View from above orbital plane
View from above orbital plane
View from above satellite
View from above satellite

Ground track
Ground track

The orbit data is extracted from the following two-line orbital elements,

1 24872U 97034D   18145.37651183  .00000131  00000-0  36365-4 0  9991
2 24872  86.4241 238.9732 0001885  86.1990 273.9424 14.38609114 93111
Epoch (UTC): 25 May 2018 09:02:10
Eccentricity: 0.0001885
inclination: 86.4241°
perigee height: 762 km
apogee height: 764 km
right ascension of ascending node: 238.9732°
argument of perigee: 86.1990°
revolutions per day: 14.38609114
mean anomaly at epoch: 273.9424°
orbit number at epoch: 9311

The dashed part of the orbit path shows where the satellite is in the earth's shadow,  

DLR